Regional Weather Roundup
Issued by NWS

Home | Current Version | Previous Version | Graphics & Text | Print | Product List | Glossary On
Versions: 1 2 3 4 5 6 7 8 9 10 11 12 13 14 15 16 17 18 19 20 21 22 23 24 25 26 27 28 29 30 31 32 33 34 35 36 37 38 39 40 41 42 43 44 45 46 47 48 49 50
000
ASUS45 KBOU 132310
RWRCO

WEATHER ROUNDUP FOR COLORADO
NATIONAL WEATHER SERVICE DENVER/BOULDER CO
400 PM MST WED DEC 13 2017

NOTE: "FAIR" INDICATES FEW OR NO CLOUDS BELOW 12000 FEET WITH NO
SIGNIFICANT WEATHER AND/OR OBSTRUCTIONS TO VISIBILITY.

COZ001>005-013-030-031-140000-
...NORTHWEST COLORADO...

CITY           SKY/WX    TMP DP  RH WIND       PRES   REMARKS
CRAIG          CLOUDY    36  25  64 CALM      30.06F
HAYDEN         CLOUDY    34  24  67 CALM      30.08F
MEEKER         CLOUDY    44  10  25 N3        30.04F
RABBIT EARS PA CLOUDY    28   5  37 W7        30.11F WCI  21
STEAMBOAT SPGS CLOUDY    35  23  61 CALM      30.07F
WALDEN         CLOUDY    37   7  28 SW6       30.07F
$$

COZ006>008-011-140000-
...WEST CENTRAL VALLEYS...

CITY           SKY/WX    TMP DP  RH WIND       PRES   REMARKS
GRAND JUNCTION CLOUDY    43  14  31 NW5       30.05F
MONTROSE       CLOUDY    46  12  25 MISG      30.06F
EAGLE          CLOUDY    33  17  51 CALM      30.09F
RIFLE          CLOUDY    41  14  33 CALM      30.06F
DELTA          CLOUDY    48  12  23 SW5       30.05F
NUCLA          FAIR      52   5  15 CALM      30.09F
$$

COZ017>023-064>068-140000-
...SOUTHWEST COLORADO...

CITY           SKY/WX    TMP DP  RH WIND       PRES   REMARKS
DURANGO        FAIR      45   6  20 SW8       30.06F
CORTEZ         FAIR      44   5  20 CALM      30.07F
PAGOSA SPRINGS FAIR      49  -2  12 S5        30.09S
TELLURIDE      FAIR      45   8  21 W16G22    30.12S
WOLF CREEK PAS FAIR      32  -2  23 SW12      30.25S WCI  23
$$

COZ009-010-012-014-032>034-037-058>063-140000-
...CENTRAL COLORADO...

CITY           SKY/WX    TMP DP  RH WIND       PRES   REMARKS
ASPEN          CLOUDY    39  12  33 CALM      30.07F
BUENA VISTA    CLOUDY    47   1  14 CALM      30.02F
COPPER MTN     NOT AVBL
BERTHOUD PASS  CLOUDY    21  10  63 NW26G39   30.11F WCI   4
COTTONWOOD PAS FAIR      48   7  18 W8G20     30.08F
GUNNISON       FAIR      37  10  32 S3        30.08F
KREMMLING      CLOUDY    36  21  55 CALM      30.09F
LEADVILLE      CLOUDY    36   0  21 NW8       30.10F
MONARCH PASS   FAIR      30   1  29 W26       30.26F WCI  16
SALIDA         FAIR      53   4  14 SW10      30.08F
SUNLIGHT       CLOUDY    32  10  40 SW9       30.19F WCI  24
WILKERSON PASS FAIR      36   1  23 W5        30.15F
$$

COZ069>075-140000-
...SAN LUIS VALLEY/SANGRE DE CRISTO MOUNTAINS...

CITY           SKY/WX    TMP DP  RH WIND       PRES   REMARKS
ALAMOSA        FAIR      48   3  15 CALM      30.03F
DEL NORTE      FAIR      47   6  18 SE3       30.07S
LA VETA PASS   FAIR      36   1  23 SW14G22     N/A
SAGUACHE       FAIR      41   9  26 E5        30.06F
$$

COZ035-036-038>040-140000-
...NORTHERN COLORADO FRONT RANGE...

CITY           SKY/WX    TMP DP  RH WIND       PRES   REMARKS
DENVER INTL AP MOCLDY    47  10  22 E7        30.02S
DMNS CITY PARK NOT AVBL
AURORA         MOCLDY    48  10  21 E9        30.02F
FRONT RANGE AP NOT AVBL
ERIE MUNI ARPT MOCLDY    50   6  16 E5        30.07S
BOULDER MUN AP CLOUDY    50  10  20 E6        30.01S
CENTENNIAL     FAIR      47  11  23 E5        30.02F
BROOMFIELD     PTCLDY    48   9  20 E9        30.03S
FORT COLLINS   CLOUDY    48  13  24 S5        30.02S
LONGMONT       CLOUDY    51  10  19 E6        30.03S
$$

COZ041-046-047-076>085-087-088-140000-
...PIKES PEAK/PALMER DIVIDE AND SOUTHERN FOOTHILLS...

CITY           SKY/WX    TMP DP  RH WIND       PRES   REMARKS
COLO. SPRINGS  FAIR      45   8  22 SE8       30.04S
A. F. ACADEMY  FAIR      44   6  20 S6        30.03S
SCHRIEVER AFB  FAIR      44   4  19 S3        30.04S
CHEYENNE MTN   FAIR      40   5  23 S8        29.98F
ELLICOTT         N/A    N/A N/A N/A SW5       30.03S
FALCON         FAIR      43   2  18 S5G16     30.05S
FORT CARSON    FAIR      45   8  21 SE10      30.01F
LIMON          FAIR      46  11  24 N9        30.03S
MONUMENT HILL  FAIR      41   9  26 E8        30.06S
CANON CITY     FAIR      46  10  23 E5        30.01S
WALSENBURG     CLOUDY    52   7  16 SE14      30.01F
TRINIDAD       FAIR      49   9  19 E6        30.02F
$$

COZ042>045-048>051-090-091-140000-
...NORTHEAST COLORADO...

CITY           SKY/WX    TMP DP  RH WIND       PRES   REMARKS
GREELEY ARPT   CLOUDY    49  13  23 NE9       30.03R
AKRON          CLOUDY    46  12  25 N16       30.01S
BURLINGTON     FAIR      50  15  24 N13G21    29.99F
WRAY           FAIR      50  14  23 N13G20    30.00S
YUMA           FAIR      45  12  26 N17G24    30.00S
STERLING       MOCLDY    46  18  31 N13       30.00F
HOLYOKE        FAIR      50  14  23 NW16      30.00S
FORT MORGAN    CLOUDY    47  10  22 N13G20    30.02S
$$

COZ086-089-092>099-140000-
...SOUTHEAST COLORADO...

CITY           SKY/WX    TMP DP  RH WIND       PRES   REMARKS
PUEBLO         CLOUDY    52   9  17 SE8       30.01S
LA JUNTA       FAIR      48  11  22 SW3       30.01F
LAMAR          FAIR      55  13  18 NE7       29.98S
SPRINGFIELD      N/A     48  14  25 NW5       30.01F
$$



USA.gov is the U.S. government's official web portal to all federal, state and local government web resources and services.